Terminal Aerodrome Forecast
Issued by NWS

Home | Current Version | Previous Version | Text Only | Print | Product List | Glossary On
Versions: 1 2 3 4 5 6 7 8 9 10 11 12 13 14 15 16 17 18 19 20 21 22 23 24 25 26 27 28 29 30 31 32 33 34 35 36 37 38 39 40 41 42 43
000
FTUS45 KGJT 290520
TAFASE
TAF
KASE 290520Z 2906/3006 20005KT P6SM SCT070
     FM291500 01003KT P6SM FEW080
     FM291900 35008KT P6SM SCT090
     FM300200 20005KT P6SM FEW090=

USA.gov is the U.S. government's official web portal to all federal, state and local government web resources and services.